www.pogodaiklimat.ru

Погода и климат >> Архив погоды >> Япония >> Миядзаки


ПОГОДА в Миядзаки

  • Прогноз погоды в Миядзаки
  • Монитор погоды в Миядзаки

АРХИВ ПОГОДЫ в Миядзаки

Время (UTC), дата Ветер
(напр.,м/с)
 
Видим.   Явления Облачность Т
(С)
Тd
(С)
f
(%)
Тe
(С)
Тes
(С)
Комфортность P
(гПа)
Po
(гПа)
Тmin
(С)
Tmax
(С)
R
(мм)
R24
(мм)
S
(см)
22 8.06 З 1 н/о н/о +21.2 +19.1 88 +26 +26 душно 1004.5 1002.8
23 8.06 С 1 н/о н/о +22.4 +18.2 77 +28 +28 душно 1005.0 1003.3
00 9.06 В 4 20 км в посл. час ливневой дождь 9/6
[Cu med, cong Ci sp]
+23.3 +17.8 71 +29 +32 душно 1004.8 1003.1 +19.3 0.0
01 9.06 В 4 н/о н/о +23.9 +16.4 63 +27 +27 жарко 1004.5 1002.8
02 9.06 В 4 н/о н/о +23.8 +17.3 67 +28 +28 душно 1004.6 1002.9
03 9.06 В 3 20 км 9/1
[Cu hum Ci sp]
+24.7 +17.7 65 +29 +42 душно 1004.1 1002.4
04 9.06 В 4 н/о н/о +24.2 +18.4 70 +29 +29 душно 1003.6 1001.9
05 9.06 В 3 н/о н/о +23.8 +18.2 71 +28 +28 душно 1003.6 1001.9
06 9.06 В 3 20 км 9/3
[Cu Sc Ci sp]
+23.7 +18.6 73 +28 +35 душно 1003.1 1001.4
07 9.06 В 3 н/о н/о +23.4 +18.5 74 +30 +30 очень
душно
1002.8 1001.1
08 9.06 В 3 н/о н/о +23.4 +18.7 75 +30 +30 очень
душно
1002.8 1001.1
09 9.06 В 3 20 км 9/4
[Cu Sc Ac trans Ci sp]
+23.0 +19.2 79 +29 +30 очень
душно
1002.7 1001.0
10 9.06 В 2 н/о н/о +22.5 +19.5 83 +29 +29 очень
душно
1002.7 1001.0
11 9.06 СВ 2 н/о н/о +22.1 +19.5 85 +28 +28 душно 1002.9 1001.2
12 9.06 СВ 1 15 км 9/3
[Cu med, cong Ci sp]
+21.7 +19.3 86 +27 +27 душно 1003.1 1001.4 +25.1
13 9.06 СЗ 2 н/о н/о +21.2 +19.7 91 +26 +26 душно 1003.4 1001.7
14 9.06 СЗ 2 н/о н/о +20.9 +19.6 92 +26 +26 душно 1003.2 1001.5
15 9.06 СЗ 2 н/о н/о +20.5 +19.5 94 +25 +25 комфорт 1002.9 1001.2
16 9.06 СЗ 3 н/о н/о +20.2 +19.4 95 +24 +24 комфорт 1002.4 1000.7
17 9.06 СЗ 3 н/о н/о +19.8 +19.2 96 +23 +23 комфорт 1001.9 1000.2
18 9.06 З 2 10 км 9/1
[Cu hum Ci sp]
+19.5 +18.9 96 +23 +23 комфорт 1002.0 1000.3
19 9.06 СЗ 2 н/о н/о +19.2 +18.6 96 +22 +22 комфорт 1001.9 1000.2
20 9.06 СЗ 4 н/о н/о +18.9 +18.4 97 +20 +20 1002.4 1000.7
21 9.06 СЗ 2 15 км 9/1
[Cu hum Ci sp]
+19.2 +18.2 94 +22 +22 комфорт 1002.6 1000.9
22 9.06 З 2 н/о н/о +20.0 +18.5 91 +24 +24 комфорт 1003.0 1001.3
23 9.06 З 1 н/о н/о +21.7 +18.7 83 +27 +27 душно 1003.4 1001.7
00 10.06 СЗ 2 15 км 9/1
[Cu hum Ci sp]
+23.9 +18.6 72 +28 +38 душно 1003.3 1001.6 +18.8
01 10.06 В 2 н/о н/о +25.2 +19.8 72 +31 +31 очень
душно
1002.9 1001.2
02 10.06 В 4 н/о н/о +25.2 +19.4 70 +30 +30 душно 1002.8 1001.1
03 10.06 В 4 15 км 9/1
[Cu hum Ci sp]
+24.9 +18.8 69 +30 +40 душно 1002.5 1000.8
04 10.06 В 4 н/о н/о +25.2 +19.6 71 +31 +31 очень
душно
1002.3 1000.6
05 10.06 В 5 н/о н/о +24.7 +19.1 71 +30 +30 очень
душно
1002.5 1000.8
06 10.06 В 4 15 км 9/1
[Cu hum Ci sp]
+24.9 +18.4 67 +29 +36 душно 1002.3 1000.6
07 10.06 В 4 н/о н/о +24.6 +18.5 69 +29 +29 душно 1002.2 1000.5
08 10.06 В 5 н/о н/о +23.9 +18.6 72 +28 +28 душно 1002.5 1000.8
09 10.06 В 3 15 км 9/8
[Cu Sc Ci sp]
+23.6 +18.5 73 +28 +28 душно 1002.8 1001.1
10 10.06 В 3 н/о н/о +23.5 +18.8 75 +28 +28 душно 1003.2 1001.5
11 10.06 В 3 н/о н/о +23.2 +19.2 78 +30 +30 очень
душно
1003.9 1002.2
12 10.06 В 2 10 км 8/3
[Cu hum Ci sp]
+22.7 +18.7 78 +28 +28 душно 1004.4 1002.7 +26.2
13 10.06 В 1 н/о н/о +22.9 +19.1 79 +29 +29 очень
душно
1004.7 1003.0
14 10.06 СЗ 2 н/о н/о +22.4 +20.0 86 +29 +29 очень
душно
1004.9 1003.2
15 10.06 СЗ 3 н/о н/о +21.5 +19.3 87 +26 +26 душно 1004.8 1003.1
16 10.06 СЗ 2 н/о н/о +20.9 +19.2 90 +26 +26 душно 1004.7 1003.0
17 10.06 СЗ 2 н/о н/о +20.7 +18.8 89 +25 +25 комфорт 1004.6 1002.9
18 10.06 СЗ 2 10 км 3/1
[Cu hum Ci fib]
+20.0 +19.0 94 +24 +24 комфорт 1004.7 1003.0
19 10.06 З 2 н/о н/о +19.6 +18.8 95 +23 +23 комфорт 1004.7 1003.0
20 10.06 СЗ 1 н/о н/о +19.0 +18.4 96 +22 +22 комфорт 1004.8 1003.1
21 10.06 З 2 8000 м дымка 9/9
[Cu Sc]
+19.1 +18.3 95 +21 +22 комфорт 1005.3 1003.6
22 10.06 СЗ 2 н/о н/о +20.0 +18.3 90 +24 +24 комфорт 1005.5 1003.8
23 10.06 З 1 н/о н/о +21.5 +18.7 84 +26 +26 душно 1005.9 1004.2
00 11.06 В 4 8000 м дымка 9/8
[Sc Ci sp]
+22.8 +17.9 74 +28 +30 душно 1006.2 1004.5 +18.6
01 11.06 В 3 н/о н/о +22.5 +17.9 75 +28 +28 душно 1006.3 1004.6
02 11.06 В 4 н/о н/о +22.7 +17.2 71 +28 +28 душно 1006.3 1004.6
03 11.06 В 3 15 км 9/8
[Sc Ac trans Ci fib]
+23.2 +17.7 71 +29 +31 душно 1006.2 1004.5
04 11.06 ЮВ 5 н/о н/о +23.8 +17.6 68 +28 +28 душно 1005.8 1004.1
05 11.06 В 4 н/о н/о +23.1 +17.3 70 +28 +28 душно 1005.4 1003.7
06 11.06 В 4 10 км слаб. ливневой дождь 10/10
[Cu Sc]
+22.3 +17.9 76 +27 +27 душно 1005.1 1003.4 0.0
07 11.06 ЮВ 3 н/о н/о +22.6 +17.7 74 +28 +28 душно 1004.9 1003.2
08 11.06 В 3 н/о н/о +23.1 +17.6 71 +28 +28 душно 1004.8 1003.1
09 11.06 В 3 15 км {ливн. осадки} 3/1
[Cu Sc Ac trans]
+22.6 +16.9 70 +27 +28 душно 1005.1 1003.4
10 11.06 В 2 н/о н/о +22.4 +16.9 71 +27 +27 душно 1005.4 1003.7
11 11.06 ЮВ 2 н/о н/о +22.4 +17.1 72 +27 +27 душно 1006.0 1004.3
12 11.06 С 1 10 км {ливн. осадки} 10/10
[Cu Sc]
+22.5 +17.4 73 +27 +27 душно 1006.4 1004.7 +24.6 0.0
13 11.06 С 2 н/о н/о +22.4 +17.6 74 +27 +27 душно 1006.7 1005.0
14 11.06 З 2 н/о н/о +22.0 +18.6 81 +27 +27 душно 1006.8 1005.1
15 11.06 З 2 н/о н/о +21.7 +18.5 82 +26 +26 душно 1006.4 1004.7
16 11.06 З 2 н/о н/о +20.9 +18.7 87 +26 +26 душно 1006.3 1004.6
17 11.06 З 2 н/о н/о +20.5 +18.6 89 +25 +25 комфорт 1006.2 1004.5
18 11.06 З 1 10 км 3/3
[Sc]
+20.0 +18.7 92 +24 +24 комфорт 1006.5 1004.8
19 11.06 СЗ 2 н/о н/о +19.1 +18.1 94 +21 +21 комфорт 1006.6 1004.9
20 11.06 СЗ 2 н/о н/о +18.7 +18.1 96 +20 +20 1007.4 1005.6
21 11.06 СЗ 1 10 км 9/9
[Sc]
+18.9 +18.1 95 +22 +22 комфорт 1007.7 1005.9
23 11.06 В 4 н/о н/о +21.8 +15.4 67 +25 +25 комфорт 1008.5 1006.8
00 12.06 СВ 4 15 км 6/6
[Cu Sc]
+23.2 +15.0 60 +27 +31 душно 1008.4 1006.7 +18.5
01 12.06 В 4 н/о н/о +24.5 +15.7 58 +28 +28 душно 1008.2 1006.5
02 12.06 В 4 н/о н/о +24.7 +15.6 57 +28 +28 душно 1008.5 1006.8
03 12.06 В 5 25 км 3/1
[Cu hum Ci fib]
+25.1 +16.5 59 +29 +39 душно 1008.3 1006.6
04 12.06 В 4 н/о н/о +25.2 +16.9 60 +29 +29 душно 1008.2 1006.5
05 12.06 ЮВ 3 н/о н/о +25.4 +17.1 60 +29 +29 душно 1007.7 1006.0
06 12.06 В 3 25 км 9/1
[Cu hum Ci sp]
+25.1 +16.0 57 +28 +37 жарко 1007.5 1005.8
07 12.06 В 5 н/о н/о +24.5 +16.8 62 +28 +28 душно 1007.4 1005.7
08 12.06 В 4 н/о н/о +23.8 +16.8 65 +27 +27 жарко 1007.8 1006.1
09 12.06 В 3 30 км 10/8
[Sc Ac As]
+23.7 +16.5 64 +27 +27 жарко 1008.1 1006.4
10 12.06 В 2 н/о н/о +23.4 +16.5 65 +28 +28 душно 1008.6 1006.9
11 12.06 СВ 2 н/о н/о +23.4 +16.2 64 +28 +28 душно 1009.2 1007.5
12 12.06 С 1 20 км 9/8
[Sc Ci sp]
+23.1 +16.4 66 +28 +28 душно 1009.6 1007.9 +26.0
13 12.06 С 1 н/о н/о +23.0 +16.1 65 +27 +27 душно 1010.0 1008.3
14 12.06 СЗ 2 н/о н/о +21.6 +18.2 81 +26 +26 душно 1009.9 1008.2
15 12.06 З 2 н/о н/о +20.6 +18.0 85 +25 +25 комфорт 1009.7 1008.0
16 12.06 З 2 н/о н/о +20.1 +18.2 89 +24 +24 комфорт 1009.6 1007.9
17 12.06 СЗ 3 н/о н/о +19.4 +17.7 90 +22 +22 комфорт 1009.4 1007.6
18 12.06 З 2 20 км 3/1
[Cu hum Ci fib]
+19.0 +17.5 91 +21 +21 комфорт 1009.5 1007.7
19 12.06 З 3 н/о н/о +18.3 +17.3 94 +19 +19 1009.9 1008.1
20 12.06 СЗ 3 н/о н/о +17.8 +16.7 93 +18 +18 1010.0 1008.2
21 12.06 СЗ 3 20 км 1/1
[Cu hum Ci sp]
+17.9 +15.9 88 +18 +18 1010.5 1008.7
22 12.06 СЗ 3 н/о н/о +19.5 +16.4 82 +22 +22 комфорт 1010.8 1009.0
23 12.06 З 1 н/о н/о +22.1 +17.0 73 +27 +27 душно 1011.1 1009.4
00 13.06 В 3 30 км 8/1
[Cu hum Ci sp]
+24.3 +16.6 62 +28 +35 душно 1011.1 1009.4 +17.6
01 13.06 СВ 4 н/о н/о +25.1 +17.6 63 +29 +29 душно 1011.1 1009.4
02 13.06 В 4 н/о н/о +26.0 +18.4 63 +31 +31 очень
душно
1011.2 1009.5
03 13.06 В 5 25 км 9/4
[Cu med, cong Ac trans Ci sp]
+25.6 +19.3 68 +31 +35 очень
душно
1011.0 1009.3
04 13.06 В 5 н/о н/о +26.1 +19.5 67 +32 +32 очень
душно
1010.9 1009.2
05 13.06 В 6 н/о н/о +26.3 +18.7 63 +31 +31 душно 1010.5 1008.8
06 13.06 В 5 25 км 9/3
[Cu Sc Ci sp]
+25.9 +19.1 66 +31 +35 очень
душно
1010.1 1008.4
07 13.06 В 6 н/о н/о +25.3 +19.7 71 +31 +31 очень
душно
1010.0 1008.3
08 13.06 В 5 н/о н/о +24.7 +19.3 72 +30 +30 очень
душно
1009.4 1007.7
09 13.06 В 4 20 км в посл. час ливневой дождь 9/9
[Cu Sc Ci sp]
+24.4 +19.5 74 +30 +30 очень
душно
1009.5 1007.8
10 13.06 В 4 н/о н/о +24.3 +19.6 75 +30 +30 очень
душно
1010.0 1008.3
11 13.06 В 3 н/о н/о +24.1 +19.8 77 +29 +29 душно 1010.5 1008.8
12 13.06 СВ 2 20 км {ливн. осадки} 9/3
[Cu Sc Ci sp]
+23.4 +20.2 82 +31 +31 очень
душно
1010.7 1009.0 +27.1 0.0
13 13.06 СВ 3 н/о н/о +22.8 +19.8 83 +29 +29 очень
душно
1010.7 1009.0
14 13.06 СВ 3 н/о н/о +22.7 +19.7 83 +29 +29 очень
душно
1010.2 1008.5
15 13.06 СВ 3 н/о н/о +22.6 +20.2 86 +29 +29 очень
душно
1009.6 1007.9
16 13.06 СВ 4 н/о н/о +22.5 +20.4 88 +29 +29 очень
душно
1008.9 1007.2
17 13.06 СВ 4 н/о н/о +22.4 +20.0 86 +29 +29 очень
душно
1008.3 1006.6
18 13.06 СВ 4 15 км {ливн. осадки} 9/3
[Cu med, cong Ci sp]
+22.3 +19.9 86 +28 +28 душно 1007.8 1006.1 0.0
19 13.06 СВ 3 н/о н/о +22.3 +20.0 87 +28 +28 душно 1007.1 1005.4
20 13.06 СВ 4 н/о н/о +22.5 +20.2 87 +29 +29 очень
душно
1006.6 1004.9
21 13.06 СВ 3 10 км слаб. дождь 10/9
[Cu Sc Ac As]
+22.6 +21.1 91 +30 +30 очень
душно
1006.4 1004.7
22 13.06 СВ 3 н/о н/о +20.6 +20.3 98 +26 +26 душно 1006.5 1004.8
23 13.06 СВ 3 н/о н/о +20.2 +19.7 97 +24 +24 комфорт 1006.5 1004.8
00 14.06 С 1 6000 м слаб. дождь 10/8
[Frnb As op]
+20.9 +20.2 96 +27 +27 душно 1006.1 1004.4 +19.9 15
02 14.06 В 2 н/о н/о +22.1 +20.4 90 +28 +28 душно 1005.8 1004.1
03 14.06 ЮВ 3 8000 м слаб. дождь 10/8
[Cu med, cong As op]
+21.2 +19.3 89 +26 +27 душно 1005.4 1003.7
04 14.06 ЮВ 6 н/о н/о +21.3 +19.4 89 +26 +26 душно 1004.4 1002.7
05 14.06 В 6 н/о н/о +21.3 +20.1 93 +26 +26 душно 1003.0 1001.3
06 14.06 В 5 5000 м дождь 10/8
[Frnb As op]
+20.9 +20.1 95 +26 +26 душно 1002.9 1001.2 12
07 14.06 В 5 н/о н/о +21.0 +20.3 96 +26 +26 душно 1002.2 1000.5
08 14.06 В 7 н/о н/о +20.9 +20.1 95 +26 +26 душно 1000.6 998.9
09 14.06 В 6 5000 м слаб. дождь 10/9
[Frnb As op]
+21.2 +20.4 95 +26 +26 душно 1000.0 998.3
10 14.06 В 7 н/о н/о +21.4 +20.7 96 +27 +27 душно 999.7 998.0
11 14.06 В 7 н/о н/о +21.7 +20.9 95 +28 +28 душно 999.2 997.5
12 14.06 В 5 5000 м ливневой дождь 10/10
[Cu med, cong]
+21.8 +21.1 96 +28 +28 душно 999.1 997.4 +22.5 46
13 14.06 В 5 н/о н/о +22.0 +21.5 97 +29 +29 очень
душно
998.8 997.1
14 14.06 В 6 н/о н/о +22.1 +21.1 94 +29 +29 очень
душно
998.5 996.8
15 14.06 СВ 4 н/о н/о +21.8 +21.1 96 +28 +28 душно 997.6 995.9
16 14.06 В 4 н/о н/о +21.2 +20.9 98 +27 +27 душно 996.8 995.1
17 14.06 В 8 н/о н/о +21.2 +20.7 97 +26 +26 душно 994.8 993.1
18 14.06 В 7 10 км слаб. ливневой дождь 10/9
[Cu med, cong Ac As]
+21.0 +20.0 94 +26 +26 душно 993.8 992.1 12
19 14.06 СВ 7 н/о н/о +20.8 +20.2 96 +25 +25 комфорт 993.1 991.4
20 14.06 СВ 9 н/о н/о +20.5 +19.9 96 +24 +24 комфорт 991.0 989.3
21 14.06 С 6 4000 м ливневой дождь, в посл. час гроза 10/10
[Cb cap]
+20.0 +19.2 95 +23 +23 комфорт 993.1 991.4
22 14.06 СЗ 4 н/о н/о +19.8 +19.5 98 +23 +23 комфорт 993.7 992.0
23 14.06 С 4 н/о н/о +20.5 +19.2 92 +25 +25 комфорт 989.6 987.9
00 15.06 З 4 50 км в посл. час ливневой дождь {гроза} 3/1
[Cb cap Ac cuf Ci ing]
+23.0 +20.0 83 +30 +36 очень
душно
991.1 989.4 +19.8 46
01 15.06 З 6 н/о н/о +25.6 +19.7 70 +31 +31 очень
душно
992.0 990.3
02 15.06 З 8 н/о н/о +27.0 +18.8 61 +32 +32 очень
душно
992.7 991.0
03 15.06 З 10 40 км 9/9
[Cu Sc]
+24.4 +18.6 70 +29 +29 душно 993.1 991.4
04 15.06 З 8 н/о н/о +23.1 +18.6 76 +29 +29 очень
душно
993.3 991.6
05 15.06 З 9 н/о н/о +24.5 +18.9 71 +29 +29 душно 993.1 991.4
06 15.06 З 6 50 км слаб. ливневой дождь 9/8
[Cu Sc Ac trans]
+24.0 +19.5 76 +29 +30 душно 993.4 991.7 0.5
07 15.06 З 9 н/о н/о +24.9 +17.9 65 +29 +29 душно 994.0 992.3
08 15.06 З 7 н/о н/о +24.2 +17.7 67 +28 +28 душно 995.0 993.3
09 15.06 З 5 40 км {ливн. осадки} 8/3
[Cu med, cong Ac trans Ci sp]
+23.6 +16.7 65 +27 +27 жарко 996.2 994.5
10 15.06 З 5 н/о н/о +22.7 +16.0 66 +27 +27 душно 997.3 995.6
11 15.06 З 7 н/о н/о +22.0 +15.6 67 +26 +26 душно 998.6 996.9
12 15.06 З 6 30 км {ливн. осадки} 3/0
[Ci fib]
+21.6 +14.8 65 +25 +25 комфорт 999.6 997.9 +27.2 0.5
13 15.06 З 5 н/о н/о +20.9 +16.1 74 +24 +24 комфорт 1000.6 998.9
14 15.06 З 6 н/о н/о +20.8 +16.2 75 +24 +24 комфорт 1001.5 999.8
15 15.06 З 4 н/о н/о +20.1 +16.4 79 +23 +23 комфорт 1002.0 1000.3
16 15.06 З 5 н/о н/о +20.1 +16.6 80 +23 +23 комфорт 1001.5 999.8
17 15.06 З 5 н/о н/о +20.3 +16.6 79 +23 +23 комфорт 1001.6 999.9
18 15.06 З 6 25 км 1/0
[Ci fib]
+20.0 +16.5 80 +22 +22 комфорт 1001.3 999.6
19 15.06 З 8 н/о н/о +20.2 +16.1 77 +22 +22 комфорт 1001.6 999.9
20 15.06 З 8 н/о н/о +20.2 +15.9 76 +22 +22 комфорт 1002.4 1000.7
21 15.06 З 8 20 км 3/1
[Cu hum Ci fib]
+20.4 +15.8 75 +23 +23 комфорт 1002.7 1001.0
22 15.06 З 8 н/о н/о +21.6 +15.7 69 +25 +25 комфорт 1003.6 1001.9

 

Местоположение метеостанции Миядзаки (Япония): широта 31.93 долгота 131.41 высота над уровнем моря 15 м.

В архиве по умолчанию представлена погода в Миядзаки за последнюю неделю. Архивные данные за месяц целиком и за предыдущие месяцы, начиная с января 2011 года, Вы можете получить, выбрав интересующий диапазон дат из раскрывающегося списка и нажав кнопку "Ввод!".


*Определитесь, кто Вы:
робот инопланетянин человек

Внимание! Время в таблицах - всемирное. Для получения местного времени необходимо прибавить поправку, которая равна 9 ч.

Смотрите также архив погоды в соседних городах и на ближайших метеорологических станциях:

Погода в Мияконодзё (Япония) (38 км)
Погода в Абурацу (Япония) (39 км)
Погода в Хитоёси (Япония) (70 км)
Погода в Нобеоке (Япония) (76 км)
Погода в Кагосиме (Япония) (92 км)
Погода на Асо (Япония) (111 км)
Погода в Акуне (Япония) (116 км)
Погода в Кумамото (Япония) (120 км)
Погода в Макурадзаки (Япония) (128 км)
Погода в Ушибуке (Япония) (132 км)

Пояснения к столбцам:

Ветер - указаны скорость ветра в м/с - средняя за 10 мин, порывы в срок и между сроками (в фигурных скобках) и направление, откуда дует ветер: С - северный, СВ - северо-восточный, В - восточный, ЮВ - юго-восточный, Ю - южный, ЮЗ - юго-западный, З - западный, СЗ - северо-западный.
Видимость - горизонтальная дальность видимости в метрах или километрах. При видимости от 1 до 10 км при отсутствии осадков обычно наблюдается дымка, при ухудшении видимости до 1 км и менее - туман. В сухую погоду видимость может ухудшаться дымом, пылью или мглою.
Явления - указаны атмосферные явления, наблюдавшиеся в срок или в последний час перед сроком; фигурными скобками обозначены явления, наблюдавшиеся между сроками (за 1-3 часа до срока); квадратными скобками обозначены град или гололедные отложения с указанием их диаметра в мм.
Облачность - указаны через наклонную черту общая и нижняя облачность в баллах и высота нижней границы облаков в метрах; квадратными скобками обозначены формы облаков: Ci - перистые, Cs - перисто-слоистые, Cc - перисто-кучевые, Ac - высококучевые, As - высокослоистые, Sc - слоисто-кучевые, Ns - слоисто-дождевые, Cu - кучевые, Cb - кучево-дождевые. Подробнее классификацию облаков см. в Атласе облаков (PDF).
T - Температура воздуха - температура, измеренная на высоте 2 м над землей.
Td - Температура точки росы - температура, при понижении до которой содержащийся в воздухе водяной пар достигнет насыщения.
f - Относительная влажность воздуха - влажноcть воздуха, измеренная на высоте 2 м над землей.
Te - Эффективная температура - температура, которую ощущает одетый по сезону человек в тени. Характеристика душности погоды. При расчете учитывается влияние влажности воздуха и скорости ветра на теплоощущения человека.
Tes - Эффективная температура на солнце - температура, которую ощущает человек, с поправкой на солнечный нагрев. Характеристика знойности погоды. Зависит от высоты солнца над горизонтом, облачности и скорости ветра. Ночью, в пасмурную погоду, а также при ветре 12 м/с и более поправка равна нулю.
P - Атмосферное давление - приведенное к уровню моря атмосферное давление.
Po - Атмосферное давление - измеренное на уровне метеостанции атмосферное давление.
Tmin - Минимальная температура - минимум температуры воздуха на высоте 2 м над землей.
Tmax - Максимальная температура - максимум температуры воздуха на высоте 2 м над землей.
R - Количество осадков - Количество выпавших осадков за период времени, мм. При наведении курсора мыши на число - период времени, за который выпало указанное количество осадков.
R24 - Количество осадков - Количество выпавших осадков за 24 часа, мм.
S - Снежный покров - Высота снежного покрова, см. При наведении курсора мыши на число - состояние снежного покрова и степень покрытия местности в баллах.